• In Hungary
  • List of Countries
  • For 7 days
  • Water Temperature
  • Satellite Maps
  • Weather Map
  • News
  • Weather Widgets
  • user-avatar
    Login

    Hourly Weather Strzyzowiec

    Today, 24 May, Thursday

    Time Temperature Precipitation Wind Pressure Humidity
    00:00 +14°C° 0 mm 3 mps 748 mmHg 89%
    01:00 +14°C° 0 mm 3 mps 748 mmHg 90%
    02:00 +13°C° 0 mm 3 mps 748 mmHg 92%
    03:00 +13°C° 0 mm 3 mps 748 mmHg 92%
    04:00 +13°C° 0 mm 3 mps 748 mmHg 92%
    05:00 +12°C° 0 mm 3 mps 748 mmHg 92%
    06:00 +14°C° 0 mm 4 mps 749 mmHg 88%
    07:00 +15°C° 0 mm 4 mps 749 mmHg 84%
    08:00 +17°C° 0 mm 4 mps 749 mmHg 79%
    09:00 +19°C° 0 mm 4 mps 749 mmHg 74%
    10:00 +20°C° 0 mm 4 mps 749 mmHg 68%
    11:00 +22°C° 0 mm 5 mps 749 mmHg 62%
    12:00 +22°C° 0 mm 5 mps 749 mmHg 60%
    13:00 +23°C° 0 mm 5 mps 748 mmHg 58%
    14:00 +23°C° 0 mm 5 mps 748 mmHg 56%
    15:00 +23°C° 0 mm 5 mps 748 mmHg 57%
    16:00 +23°C° 0 mm 5 mps 748 mmHg 58%
    17:00 +23°C° 0 mm 4 mps 748 mmHg 59%
    18:00 +21°C° 0 mm 4 mps 747 mmHg 65%
    19:00 +19°C° 0 mm 3 mps 747 mmHg 72%
    20:00 +18°C° 0 mm 3 mps 747 mmHg 79%
    21:00 +17°C° 0 mm 3 mps 747 mmHg 81%
    22:00 +16°C° 0 mm 3 mps 747 mmHg 84%
    23:00 +14°C° 0 mm 3 mps 747 mmHg 87%

    Tomorrow, 25 May, Friday

    Time Temperature Precipitation Wind Pressure Humidity
    00:00 +13°C° 0 mm 3 mps 747 mmHg 89%
    01:00 +14°C° 0 mm 2 mps 747 mmHg 91%
    02:00 +13°C° 0 mm 2 mps 747 mmHg 92%
    03:00 +13°C° 0 mm 2 mps 747 mmHg 93%
    04:00 +13°C° 0 mm 2 mps 747 mmHg 94%
    05:00 +13°C° 0 mm 2 mps 747 mmHg 95%
    06:00 +14°C° 0 mm 2 mps 747 mmHg 89%
    07:00 +16°C° 0 mm 2 mps 747 mmHg 83%
    08:00 +18°C° 0 mm 2 mps 748 mmHg 78%
    09:00 +19°C° 0.1 mm 3 mps 747 mmHg 72%
    10:00 +21°C° 0.1 mm 3 mps 747 mmHg 67%
    11:00 +22°C° 0.1 mm 3 mps 747 mmHg 62%
    12:00 +24°C° 0.5 mm 3 mps 747 mmHg 63%
    13:00 +23°C° 0.5 mm 4 mps 747 mmHg 63%
    14:00 +25°C° 0.5 mm 4 mps 747 mmHg 64%
    15:00 +23°C° 0.8 mm 4 mps 747 mmHg 66%
    16:00 +23°C° 0.8 mm 4 mps 747 mmHg 69%
    17:00 +23°C° 0.8 mm 4 mps 747 mmHg 72%
    18:00 +22°C° 0.6 mm 3 mps 748 mmHg 77%
    19:00 +20°C° 0.6 mm 3 mps 748 mmHg 83%
    20:00 +19°C° 0.6 mm 3 mps 748 mmHg 88%
    21:00 +18°C° 0.3 mm 3 mps 748 mmHg 89%
    22:00 +18°C° 0.3 mm 3 mps 748 mmHg 91%
    23:00 +17°C° 0.3 mm 3 mps 749 mmHg 92%

    Day after tomorrow, 26 May, Saturday

    Time Temperature Precipitation Wind Pressure Humidity
    00:00 +17°C° 0 mm 3 mps 749 mmHg 93%
    01:00 +16°C° 0 mm 3 mps 749 mmHg 93%
    02:00 +16°C° 0 mm 3 mps 749 mmHg 94%
    03:00 +16°C° 0 mm 3 mps 749 mmHg 94%
    04:00 +16°C° 0 mm 3 mps 749 mmHg 94%
    05:00 +16°C° 0 mm 3 mps 749 mmHg 94%
    06:00 +17°C° 0 mm 4 mps 750 mmHg 91%
    07:00 +18°C° 0 mm 4 mps 750 mmHg 88%
    08:00 +20°C° 0 mm 4 mps 750 mmHg 85%
    09:00 +21°C° 0 mm 5 mps 750 mmHg 80%
    10:00 +22°C° 0 mm 5 mps 750 mmHg 75%
    11:00 +23°C° 0 mm 5 mps 750 mmHg 69%
    12:00 +25°C° 0.1 mm 5 mps 750 mmHg 67%
    13:00 +25°C° 0.1 mm 5 mps 750 mmHg 65%
    14:00 +26°C° 0.1 mm 5 mps 750 mmHg 62%
    15:00 +26°C° 0.2 mm 5 mps 750 mmHg 64%
    16:00 +25°C° 0.2 mm 5 mps 750 mmHg 66%
    17:00 +25°C° 0.2 mm 5 mps 749 mmHg 68%
    18:00 +22°C° 0.1 mm 5 mps 749 mmHg 72%
    19:00 +21°C° 0.1 mm 4 mps 749 mmHg 77%
    20:00 +19°C° 0.1 mm 4 mps 749 mmHg 82%
    21:00 +19°C° 0 mm 4 mps 749 mmHg 84%
    22:00 +18°C° 0 mm 4 mps 750 mmHg 85%
    23:00 +17°C° 0 mm 4 mps 750 mmHg 87%

    27 May, Sunday

    Time Temperature Precipitation Wind Pressure Humidity
    00:00 +15°C° 0 mm 4 mps 750 mmHg 89%
    01:00 +15°C° 0 mm 4 mps 749 mmHg 92%
    02:00 +14°C° 0 mm 4 mps 749 mmHg 94%
    03:00 +14°C° 0 mm 4 mps 749 mmHg 94%
    04:00 +13°C° 0 mm 3 mps 749 mmHg 95%
    05:00 +13°C° 0 mm 3 mps 749 mmHg 95%
    06:00 +14°C° 0 mm 4 mps 749 mmHg 90%
    07:00 +15°C° 0 mm 4 mps 749 mmHg 86%
    08:00 +17°C° 0 mm 4 mps 749 mmHg 82%
    09:00 +19°C° 0 mm 4 mps 749 mmHg 78%
    10:00 +20°C° 0 mm 4 mps 749 mmHg 73%
    11:00 +22°C° 0 mm 5 mps 749 mmHg 69%
    12:00 +22°C° 0 mm 4 mps 749 mmHg 68%
    13:00 +23°C° 0 mm 4 mps 749 mmHg 66%
    14:00 +25°C° 0 mm 4 mps 749 mmHg 65%
    15:00 +25°C° 0 mm 4 mps 749 mmHg 65%
    16:00 +25°C° 0 mm 4 mps 749 mmHg 66%
    17:00 +25°C° 0 mm 4 mps 749 mmHg 67%
    18:00 +23°C° 0 mm 4 mps 749 mmHg 73%
    19:00 +21°C° 0 mm 4 mps 749 mmHg 79%
    20:00 +20°C° 0 mm 3 mps 749 mmHg 86%
    21:00 +19°C° 0 mm 3 mps 749 mmHg 88%
    22:00 +18°C° 0 mm 3 mps 749 mmHg 91%
    23:00 +17°C° 0 mm 3 mps 749 mmHg 94%

    28 May, Monday

    Time Temperature Precipitation Wind Pressure Humidity
    00:00 +17°C° 0 mm 3 mps 750 mmHg 94%
    01:00 +16°C° 0 mm 3 mps 750 mmHg 95%
    02:00 +16°C° 0 mm 3 mps 750 mmHg 95%
    03:00 +14°C° 0 mm 3 mps 750 mmHg 95%
    04:00 +14°C° 0 mm 3 mps 750 mmHg 95%
    05:00 +14°C° 0 mm 3 mps 750 mmHg 95%
    06:00 +15°C° 0 mm 4 mps 750 mmHg 89%
    07:00 +18°C° 0 mm 4 mps 751 mmHg 83%
    08:00 +19°C° 0 mm 4 mps 751 mmHg 77%
    09:00 +21°C° 0 mm 5 mps 751 mmHg 73%
    10:00 +22°C° 0 mm 5 mps 751 mmHg 68%
    11:00 +23°C° 0 mm 5 mps 751 mmHg 64%
    12:00 +25°C° 0 mm 5 mps 751 mmHg 63%
    13:00 +25°C° 0 mm 5 mps 751 mmHg 62%
    14:00 +26°C° 0 mm 5 mps 751 mmHg 60%
    15:00 +25°C° 0 mm 5 mps 751 mmHg 62%
    16:00 +25°C° 0 mm 5 mps 751 mmHg 63%
    17:00 +25°C° 0 mm 5 mps 751 mmHg 64%
    18:00 +23°C° 0 mm 5 mps 751 mmHg 70%
    19:00 +21°C° 0 mm 4 mps 751 mmHg 75%
    20:00 +20°C° 0 mm 4 mps 751 mmHg 81%
    21:00 +19°C° 0 mm 4 mps 751 mmHg 81%
    22:00 +18°C° 0 mm 4 mps 751 mmHg 82%
    23:00 +17°C° 0 mm 4 mps 752 mmHg 83%

    29 May, Tuesday

    Time Temperature Precipitation Wind Pressure Humidity
    00:00 +17°C° 0 mm 4 mps 752 mmHg 83%
    01:00 +15°C° 0 mm 4 mps 752 mmHg 83%
    02:00 +15°C° 0 mm 4 mps 752 mmHg 83%
    03:00 +14°C° 0 mm 4 mps 752 mmHg 84%
    04:00 +14°C° 0 mm 4 mps 752 mmHg 86%
    05:00 +13°C° 0 mm 4 mps 752 mmHg 87%
    06:00 +15°C° 0 mm 4 mps 752 mmHg 82%
    07:00 +16°C° 0 mm 5 mps 752 mmHg 78%
    08:00 +19°C° 0 mm 5 mps 752 mmHg 73%
    09:00 +20°C° 0 mm 6 mps 752 mmHg 69%
    10:00 +21°C° 0 mm 6 mps 752 mmHg 65%
    11:00 +22°C° 0 mm 6 mps 752 mmHg 61%
    12:00 +23°C° 0 mm 6 mps 752 mmHg 60%
    13:00 +23°C° 0 mm 6 mps 752 mmHg 58%
    14:00 +24°C° 0 mm 6 mps 752 mmHg 57%
    15:00 +25°C° 0 mm 5 mps 752 mmHg 58%
    16:00 +25°C° 0 mm 5 mps 751 mmHg 59%
    17:00 +23°C° 0 mm 5 mps 751 mmHg 60%
    18:00 +22°C° 0 mm 5 mps 751 mmHg 66%
    19:00 +21°C° 0 mm 4 mps 751 mmHg 72%
    20:00 +19°C° 0 mm 3 mps 750 mmHg 78%
    21:00 +18°C° 0 mm 3 mps 750 mmHg 80%
    22:00 +17°C° 0 mm 3 mps 750 mmHg 82%
    23:00 +16°C° 0 mm 3 mps 750 mmHg 85%
    Show more